Find Starlink 37696

NORAD ID: 100274 Int'l Des: 2026-183 Owner: SPXS Country: US Constellation: starlink operational

当前视图

正在加载3D地球...

About Starlink 37696

Starlink 37696 (NORAD 100274) is a starlink constellation satellite launched Aug 11, 2026 by SPXS of US. with a mass of 575.00 kg.

即将过境

Passes for default location (London). Set your location on the main map for personalized predictions.

高度历史

Loading altitude history...

两行轨道根数

1 A0274U 26183C 26247.76922127 .00162201 00000-0 84830-3 0 9998
2 A0274 53.1586 334.8791 0001315 88.1999 271.9173 15.79862379 3833
Epoch: Sep 4, 2026 • Age: 20 hours

当前状态

高度 330.3 km
远地点 / 近地点 N/A
速度 7.71 km/s
星下点 5.06°N, 61.83°W
发射日期 Aug 11, 2026
运行时间 24 days
类型 internet

技术详情

分类 Payload
质量 575.00 kg
干质量 530.00 kg
总质量 575.00 kg
长度 0.30 m
直径 4.10 m
跨度 29.00 m
形状 Box + pan
制造商 SPXS
平台类型 Starlink V2MO
阶段状态 In Orbit
所有者/国家 SPXS/US

Most Searched